Tracking 25693 objects as of 1-Jul-2022
HD Live streaming from Space Station
objects crossing your sky now

STARLINK-1790

Track STARLINK-1790 now!
10-day predictions
STARLINK-1790 is classified as:


NORAD ID: 46691
Int'l Code: 2020-073X
Perigee: 553.1 km
Apogee: 555.7 km
Inclination: 53.1 °
Period: 95.6 minutes
Semi major axis: 6925 km
RCS: Unknown
Launch date: October 18, 2020
Source: United States (US)
Launch site: AIR FORCE EASTERN TEST RANGE (AFETR)
aabbcc
Your satellite tracking list
Your tracking list is empty




NASA's NSSDC Master Catalog

Two Line Element Set (TLE):
1 46691U 20073X   22182.37665969  .00000459  00000-0  49710-4 0  9997
2 46691  53.0535 169.9470 0001904  58.9583 301.1593 15.06385653 94059
Source of the keplerian elements: AFSPC